Wind_Speed
27 28 29 29 28 25 25 25 25 27 26 26 27 27 25 24 24 24 21 19 16 4 12 15 16 9 11 10 6 4 4 4 1 5 4 5 5 4 7 12 6 11 10 8 8 7 11 5 10 5 4 6 7 11
30 30 29 26 28 30 29 28 29 28 32 32 31 30 29 26 26 26 20 21 17 5 6 13 15 22 23 17 9 4 3 5 2 2 2 3 3 4 6 4 6 3 7 3 6 4 3 8 5 4 2 6 8 10
29 30 31 31 32 32 32 33 33 33 33 32 30 29 29 29 28 30 25 20 15 4 8 13 15 24 21 18 20 11 10 10 5 6 3 2 6 2 2 4 5 6 3 4 9 15 4 8 6 4 5 7 10 12
33 33 33 34 35 35 35 35 35 35 32 30 30 28 30 30 29 32 28 22 17 1 4 9 16 18 22 26 24 21 18 18 12 6 2 3 3 4 3 5 5 8 8 6 5 11 9 7 11 9 4 6 12 12
35 35 36 37 38 38 39 39 37 35 32 30 29 29 29 30 30 31 27 25 26 8 3 4 17 22 21 15 21 24 17 11 7 4 2 2 3 5 5 8 8 9 9 6 5 5 4 9 10 8 5 9 8 7
38 38 39 40 40 39 39 38 36 36 36 32 30 28 28 28 29 22 5 26 30 27 4 4 5 9 5 18 20 14 11 10 6 2 2 4 11 5 3 5 9 11 14 13 7 11 10 10 13 12 10 11 9 11
38 37 36 36 36 35 33 29 24 26 31 35 35 29 27 27 31 10 4 2 34 28 2 3 5 5 21 12 9 7 11 6 3 2 3 6 9 5 3 6 15 16 15 16 14 13 12 13 12 9 8 14 15 15
27 25 25 27 21 16 15 16 15 20 22 33 35 31 26 25 23 12 10 5 31 11 3 3 4 3 5 3 3 6 4 5 4 3 2 3 5 4 4 9 12 14 13 15 9 10 8 7 12 8 7 8 10 11
19 9 11 14 16 16 13 12 10 18 21 29 35 30 19 10 4 7 16 18 22 5 3 3 4 3 6 7 4 4 3 3 5 4 4 4 5 5 7 12 12 12 12 14 14 10 11 13 17 11 6 6 12 10
11 16 19 16 15 14 13 19 15 17 26 33 28 6 4 8 23 23 7 5 2 2 2 4 4 5 6 3 4 3 3 3 3 6 4 4 7 16 16 15 15 14 13 13 11 10 11 12 14 9 9 7 10 11
2 9 15 20 21 20 15 20 22 27 34 6 3 2 12 32 8 2 3 4 4 3 4 4 9 5 4 3 3 2 1 2 3 4 6 4 2 8 13 14 13 13 13 11 10 10 10 10 11 11 7 11 12 12
6 5 8 17 23 27 27 23 31 21 11 11 16 20 7 4 2 5 5 4 6 5 7 6 8 5 2 1 2 1 3 1 5 2 3 2 4 9 10 11 11 11 13 11 11 11 10 10 11 10 12 13 15 17
13 22 15 3 17 37 34 31 33 28 40 30 6 3 4 2 5 6 8 4 4 3 3 3 4 2 3 1 2 2 4 5 3 2 1 4 6 8 10 10 11 10 12 12 11 12 12 12 16 14 12 17 19 18
19 27 31 34 31 36 39 41 40 23 6 2 3 6 2 5 4 1 2 5 3 4 5 4 4 3 3 4 3 3 3 3 3 4 3 4 8 9 9 9 9 10 10 9 9 9 10 10 11 14 16 18 20 19
18 24 26 32 38 41 43 35 15 8 5 4 3 4 3 3 4 2 2 3 3 2 5 3 2 3 2 2 3 3 3 5 1 4 2 5 8 8 8 9 9 8 7 8 8 7 9 11 11 14 16 18 22 23
14 15 16 19 27 26 20 12 8 5 3 3 6 3 4 6 5 5 5 5 5 3 1 2 3 3 4 3 5 5 4 4 3 3 4 6 7 7 6 7 7 7 7 8 10 11 12 12 14 16 19 20 21 23
9 6 9 14 11 10 7 5 5 5 4 4 4 6 4 7 7 4 4 4 4 2 2 3 5 4 3 4 3 4 3 4 4 5 5 7 7 7 6 5 5 7 7 8 9 11 13 14 16 17 13 18 22 24
11 14 17 19 13 7 6 7 4 4 6 5 5 6 7 6 6 5 4 5 3 2 2 2 3 3 5 4 4 4 5 5 5 4 4 5 5 7 8 6 8 8 10 10 11 12 13 14 15 14 19 21 23 24
10 12 14 12 5 5 3 4 5 4 5 4 4 5 5 5 6 6 6 6 5 6 3 3 5 4 4 4 6 6 6 5 4 2 3 5 6 5 5 5 6 7 7 8 9 10 12 14 14 15 15 16 17 17
20 18 15 8 5 4 4 3 4 5 3 3 4 6 4 4 4 6 8 7 7 4 5 5 4 5 4 5 5 6 5 6 6 4 4 4 6 6 8 7 8 9 11 13 14 14 14 14 15 15 16 17 18 18
8 7 8 7 5 9 3 3 4 4 4 4 5 4 4 7 7 6 5 6 5 4 3 4 5 4 6 8 8 10 7 8 5 4 5 3 5 6 5 6 7 7 9 9 11 13 14 14 15 17 19 20 20 20
3 7 4 7 4 4 4 7 5 4 3 5 3 3 3 4 4 5 3 6 4 3 3 4 4 4 4 6 9 12 12 11 8 6 6 4 2 4 5 6 6 8 10 11 12 13 15 15 19 21 22 23 22 21
6 5 6 7 4 4 3 2 2 3 3 4 3 3 3 3 3 3 4 3 2 4 6 5 9 0 5 7 9 13 14 10 9 9 9 10 10 9 9 10 11 11 10 13 14 17 18 20 20 20 20 21 21 20
7 6 5 4 5 4 2 3 3 3 3 3 3 3 3 3 4 3 3 2 4 7 7 9 10 5 6 10 7 11 15 10 10 13 12 10 9 12 12 13 13 13 13 15 16 17 17 18 18 17 17 17 17 17
6 8 5 7 4 3 3 3 4 4 4 4 3 4 2 1 2 3 3 2 5 6 6 11 7 7 6 6 9 11 15 11 11 8 14 11 11 12 13 14 14 13 13 13 14 14 14 15 14 14 14 14 16 16
8 9 6 6 4 4 4 3 3 4 3 3 4 2 2 3 4 4 3 5 5 6 6 7 7 5 7 12 7 11 13 12 11 12 15 18 13 10 10 8 10 14 12 11 12 14 14 13 13 14 15 14 14 14
5 6 5 4 3 3 4 5 6 5 5 4 3 3 2 3 4 3 4 7 4 8 9 10 11 10 9 11 12 12 13 14 13 12 12 16 18 20 16 13 12 10 10 11 11 12 13 13 13 13 13 12 11 11
5 5 6 5 7 6 4 4 5 5 4 4 2 4 3 4 4 3 4 7 6 4 7 8 9 10 11 11 11 11 8 6 11 14 16 18 18 17 17 17 15 13 14 13 11 11 12 12 13 12 12 12 11 9
5 4 3 7 5 6 7 5 4 3 4 3 2 4 3 4 7 6 6 7 9 10 11 11 11 8 10 12 14 15 16 20 9 9 10 7 10 14 13 12 12 13 13 14 13 12 12 12 12 12 11 11 10 9
4 3 4 7 5 6 6 4 6 7 8 9 7 9 9 9 11 11 10 10 10 11 10 11 11 12 13 11 12 16 19 19 22 14 7 7 10 10 10 10 11 10 10 10 10 12 12 13 12 11 10 9 8 6
3 4 5 6 5 6 7 9 12 12 9 9 7 7 6 4 7 10 13 10 10 10 10 11 13 13 13 13 13 10 11 14 15 15 12 10 10 9 9 9 8 7 6 6 5 6 6 6 7 6 5 6 6 5
4 4 5 5 5 4 3 2 3 6 4 5 5 4 4 3 3 4 10 11 9 10 11 10 10 11 10 9 10 10 9 8 9 8 8 9 8 7 6 6 6 6 6 6 6 5 4 4 4 5 5 5 4 2
10 9 9 7 5 5 2 2 3 3 2 3 2 3 4 4 4 3 5 8 8 8 8 8 7 7 7 8 8 8 8 10 10 9 8 8 6 6 6 5 6 4 4 5 5 5 4 4 4 4 4 4 2 2
Wind_Direction
261 263 264 267 269 268 268 267 260 260 254 254 255 256 252 242 231 219 234 236 216 245 272 280 282 247 271 283 296 359 307 207 158 205 240 253 284 267 279 292 144 189 191 198 231 242 248 336 355 350 26 340 328 324
265 266 268 268 272 271 268 265 262 259 263 260 255 251 246 239 227 220 233 230 221 236 264 308 280 264 265 250 267 227 251 284 282 268 317 338 303 272 314 304 155 205 203 188 199 225 339 321 98 122 359 329 325 332
268 267 264 265 270 269 267 266 264 262 258 254 247 242 237 234 226 217 220 228 212 247 279 260 258 257 254 254 252 266 276 283 284 354 320 228 249 295 288 327 330 232 276 229 202 236 195 264 310 132 50 337 325 312
270 267 265 267 269 269 267 263 262 261 255 247 242 235 229 227 222 219 215 219 205 172 255 271 260 252 260 246 244 243 259 269 283 279 259 269 277 325 301 309 305 291 289 297 300 23 344 16 2 323 269 327 295 291
271 270 267 267 268 268 267 265 261 255 250 242 233 228 225 222 220 218 218 218 207 201 255 278 297 281 257 244 244 248 246 251 260 278 222 269 261 276 274 274 270 282 292 316 330 314 307 261 285 333 298 290 44 23
272 270 269 270 270 269 267 265 258 254 244 230 223 218 216 212 208 199 220 228 217 212 272 275 320 242 257 233 247 235 230 244 247 233 211 234 239 263 266 282 288 351 351 332 320 286 336 315 302 308 297 68 60 57
277 272 267 266 268 268 271 269 256 247 231 214 211 210 205 200 192 186 200 182 204 191 204 261 276 238 220 219 229 231 226 224 218 201 213 251 271 265 269 268 287 296 294 302 303 310 309 320 334 321 333 96 84 76
269 264 262 267 265 251 238 245 237 213 216 203 198 199 194 191 190 196 233 239 173 148 188 225 255 222 187 184 217 198 207 208 214 190 212 232 264 227 252 263 267 272 286 292 308 318 340 336 297 327 39 108 108 90
265 248 254 254 245 234 224 216 208 199 181 179 181 183 183 185 141 173 185 173 160 172 187 212 229 228 169 209 194 173 184 212 188 210 223 221 227 228 240 247 257 269 274 282 292 320 331 331 10 346 36 357 108 109
258 263 266 253 228 222 218 205 182 177 166 160 148 129 158 179 134 129 127 170 166 252 232 236 231 212 199 201 197 170 181 225 234 217 216 218 248 249 257 265 271 290 324 355 325 323 351 338 331 345 352 49 92 117
330 279 265 241 223 207 194 180 173 158 150 125 128 114 131 126 103 170 153 181 171 204 212 221 208 194 187 181 181 243 193 275 247 229 199 218 191 47 19 28 27 19 18 10 5 354 344 330 322 317 323 93 103 109
42 6 300 229 210 208 187 176 162 144 148 149 118 117 116 111 147 181 174 173 200 217 172 199 204 190 126 138 105 260 219 225 251 55 213 229 47 23 17 16 15 21 7 3 7 1 355 356 1 359 80 93 97 107
60 45 60 155 193 185 171 165 147 134 127 124 95 107 162 160 176 197 165 178 195 132 153 191 114 116 139 173 121 191 223 234 273 236 201 54 27 20 8 5 355 23 15 6 11 17 32 36 40 71 89 98 105 107
62 69 74 79 115 148 148 133 134 134 96 106 134 122 196 174 198 68 210 148 56 112 153 147 118 177 118 165 163 218 232 277 250 234 87 43 19 3 357 358 357 1 6 8 15 32 43 50 52 62 87 105 110 112
83 76 77 79 93 107 115 119 76 74 52 61 23 78 79 102 71 45 358 76 35 37 145 127 106 114 156 155 212 243 230 230 345 56 55 28 19 6 350 358 358 7 11 18 36 48 57 64 68 66 79 99 107 110
87 65 56 107 102 93 94 108 73 71 61 52 38 102 101 113 97 54 68 72 16 11 33 67 146 173 198 207 194 216 256 45 61 48 45 19 8 8 360 5 17 25 32 46 53 65 71 75 85 85 85 92 100 106
78 96 135 140 133 91 64 104 63 57 58 54 61 17 58 71 64 52 37 22 344 313 201 190 200 197 131 197 99 20 35 56 39 42 37 21 6 5 14 26 25 41 73 77 79 85 94 99 101 97 91 91 94 97
101 145 130 126 125 75 41 46 79 80 63 53 81 69 56 34 66 47 24 8 346 334 4 45 328 25 17 29 63 32 42 45 71 60 49 15 21 24 31 49 59 72 79 90 94 100 103 106 102 102 104 103 98 94
117 116 149 150 157 93 77 38 56 86 69 88 93 88 84 79 53 38 30 16 42 25 48 37 42 33 50 31 15 5 8 13 356 8 95 79 37 37 71 84 96 95 117 124 113 95 93 99 112 117 119 110 99 98
108 107 105 127 165 88 82 66 75 78 91 101 78 60 65 54 63 54 41 30 41 57 50 43 39 35 13 6 355 339 355 340 324 323 134 103 82 53 41 71 84 90 88 89 91 98 99 98 103 107 106 108 106 104
104 76 68 92 71 67 74 83 72 104 110 85 118 104 99 72 51 44 39 17 58 29 59 29 22 13 5 3 1 344 7 355 4 7 2 70 80 95 80 62 77 92 98 89 90 89 92 94 97 99 97 96 99 100
67 63 88 52 79 69 76 30 106 119 83 112 94 72 84 63 51 37 48 44 57 33 359 346 354 351 6 20 23 15 357 343 24 35 36 19 66 78 98 91 94 90 87 94 104 103 99 98 97 98 99 100 102 106
68 48 46 30 77 67 84 246 99 124 103 108 124 79 64 75 75 91 75 56 87 30 348 355 336 113 25 56 41 19 8 19 37 41 45 53 63 64 73 85 93 97 97 95 100 104 107 109 110 109 109 109 111 112
58 48 34 43 43 85 71 38 48 56 67 66 64 81 60 82 143 80 78 66 55 26 11 3 13 8 76 57 46 27 8 35 58 43 45 71 72 67 70 70 73 84 98 108 109 108 108 113 115 117 123 121 118 116
75 11 359 54 18 67 74 61 29 68 51 68 80 68 64 116 73 76 79 62 42 31 16 4 39 41 19 41 40 36 23 45 50 45 32 86 88 85 76 67 68 80 93 102 111 115 116 117 121 122 121 122 121 118
72 23 30 21 36 45 37 80 64 61 71 69 60 66 26 64 64 63 62 20 39 25 17 13 14 51 56 38 36 29 16 21 67 58 36 29 47 87 89 86 79 61 60 87 105 110 110 111 114 115 112 114 119 121
67 61 48 18 23 77 96 59 51 53 50 49 51 17 41 76 77 71 83 35 34 35 34 31 36 43 44 46 53 50 50 58 70 70 64 58 57 59 66 74 69 64 77 88 101 111 117 118 119 121 121 121 122 126
62 43 67 45 60 43 74 55 43 37 47 353 37 37 45 38 61 60 45 33 12 45 66 57 56 57 53 47 40 31 38 98 100 100 82 68 64 64 66 70 73 79 82 86 97 111 118 123 126 127 125 121 119 125
71 99 78 38 67 54 34 45 41 43 329 313 73 85 83 64 46 68 48 43 42 51 45 37 35 64 73 60 50 41 32 28 53 83 75 71 65 51 56 70 74 73 79 84 88 98 104 113 119 121 122 125 126 128
61 91 88 45 55 61 34 58 85 73 66 78 95 105 93 81 53 47 50 44 49 60 53 42 39 37 34 58 67 56 45 43 38 51 69 70 60 54 57 57 57 72 83 90 95 99 103 108 111 115 118 121 117 112
84 78 68 67 82 102 105 103 86 75 72 79 94 106 109 124 95 52 29 38 43 49 62 61 53 47 47 41 35 51 57 42 44 48 56 63 62 56 51 48 52 66 75 89 101 108 121 114 110 120 128 121 126 143
67 81 119 106 120 147 235 150 84 107 112 103 109 138 171 139 87 75 4 12 63 63 50 56 60 52 49 55 55 57 60 50 38 43 61 59 56 50 48 51 54 64 73 79 87 88 86 105 116 118 130 138 150 137
94 98 104 102 132 148 176 186 113 118 101 91 73 45 39 27 69 95 66 41 53 64 66 66 66 64 58 55 55 61 55 48 44 45 50 56 70 85 72 71 61 62 63 78 84 88 85 91 99 91 82 100 137 162
Height
724 724 723 723 724 724 725 726 727 729 731 733 735 738 740 744 748 752 753 754 756 752 747 746 743 746 748 744 742 745 738 732 742 741 732 716 708 699 694 680 701 700 708 711 706 706 703 668 667 680 684 682 686 682
714 714 714 714 714 715 715 717 718 720 721 723 726 729 734 738 742 747 749 750 753 755 745 742 740 741 742 745 747 743 744 744 742 735 727 728 723 708 702 695 688 697 682 689 685 683 673 670 671 678 682 683 681 680
704 704 703 704 704 704 705 706 708 710 711 713 717 721 725 730 736 741 744 747 751 752 747 742 732 735 737 737 740 739 735 734 733 740 738 729 726 720 705 692 693 682 687 685 690 678 681 679 670 675 679 681 679 676
693 692 692 692 692 692 693 694 696 698 700 703 707 712 717 723 729 734 738 743 748 750 745 727 727 726 728 732 733 733 733 735 736 737 740 732 726 713 710 708 707 693 678 675 673 673 672 673 673 675 674 676 672 670
681 680 679 679 678 679 680 681 682 685 689 693 699 704 710 716 723 730 736 738 742 746 732 730 728 722 721 724 725 727 729 731 732 736 735 727 718 715 704 698 692 683 677 676 683 682 682 682 671 668 668 667 668 672
668 666 665 665 665 665 666 666 667 671 676 683 690 697 704 711 719 729 732 733 735 740 743 734 717 715 715 717 719 718 722 726 729 733 728 722 713 716 712 697 681 676 681 677 677 676 670 670 667 664 663 667 671 675
653 652 652 652 652 652 652 653 654 656 663 672 683 691 699 706 713 718 719 717 721 737 741 735 721 704 705 708 712 715 718 720 726 726 724 720 713 713 713 701 687 683 679 675 671 669 668 665 664 661 662 671 678 686
641 640 640 640 641 643 645 646 647 651 656 664 676 687 696 703 710 713 715 714 719 729 738 727 715 704 703 708 709 709 712 715 721 718 720 714 705 704 703 689 683 679 675 671 667 666 670 669 667 661 662 668 676 690
632 632 633 634 635 637 640 642 644 647 653 661 674 687 695 699 704 707 714 715 719 725 721 720 706 699 701 702 704 707 708 712 707 710 704 701 698 698 685 680 677 675 674 671 669 670 671 669 671 664 666 668 678 692
627 627 626 626 628 631 634 639 643 648 652 662 676 684 690 694 699 706 715 717 719 717 713 705 697 695 699 698 700 703 703 703 701 694 689 693 688 679 678 677 675 674 674 675 675 675 676 677 677 675 672 675 680 694
621 618 616 617 620 625 630 635 641 648 655 663 671 678 684 690 698 706 708 708 709 706 702 693 689 691 693 698 701 698 705 699 698 680 682 678 673 692 692 692 693 693 689 689 688 688 687 686 684 681 679 687 693 700
617 613 608 605 609 616 625 633 639 646 653 658 663 675 683 691 695 694 695 696 694 685 681 683 682 685 694 695 702 707 703 705 697 686 688 674 705 704 703 703 702 701 701 698 697 696 695 692 691 688 686 694 702 710
618 611 602 597 597 607 621 630 639 647 651 658 667 676 677 685 683 681 680 681 677 675 678 680 689 696 697 697 704 706 706 695 681 684 675 702 711 711 711 710 708 706 710 708 705 705 704 704 702 700 702 707 711 717
621 616 610 604 600 610 624 631 643 648 653 659 664 667 669 673 667 667 662 663 677 675 677 679 687 687 693 699 702 701 690 687 685 682 687 717 719 718 717 717 715 714 715 715 713 712 711 711 712 710 710 713 717 722
627 626 624 622 623 626 633 641 646 651 656 661 660 669 676 683 683 684 683 682 687 685 679 685 687 690 694 698 697 693 692 684 681 700 715 723 725 724 724 722 723 721 720 719 719 719 718 718 719 719 720 721 723 727
634 634 634 635 636 640 646 649 654 657 667 675 680 679 681 681 686 688 688 691 695 693 691 689 693 695 692 688 689 682 675 689 713 721 726 727 728 728 728 727 726 725 724 724 725 725 726 726 727 728 729 730 732 734
637 641 642 643 643 648 650 653 659 668 678 683 690 692 689 690 694 698 698 701 701 697 689 689 685 679 683 680 693 705 712 721 725 729 731 732 732 730 729 729 728 728 728 730 731 731 732 733 734 734 736 739 740 742
639 643 646 647 649 649 652 657 666 677 689 693 694 701 701 702 704 706 706 705 701 696 693 696 691 692 698 693 709 723 725 726 730 732 735 735 735 734 733 732 732 732 733 733 734 735 738 738 740 743 745 747 749 751
641 644 647 649 651 654 663 670 672 687 697 700 704 705 708 713 716 715 713 710 709 707 704 708 714 719 727 736 739 736 734 733 733 734 736 738 738 737 736 736 736 736 736 736 737 738 741 742 744 747 750 752 755 758
645 647 649 650 651 656 668 676 678 686 696 705 708 711 713 717 719 720 720 719 716 719 729 736 743 749 749 750 749 746 742 742 737 732 734 737 738 739 738 738 739 740 741 742 743 744 746 748 750 752 755 758 761 764
648 650 650 651 655 662 672 679 686 693 698 703 708 709 718 721 723 725 727 729 732 747 750 757 757 757 756 755 753 750 747 745 742 740 739 737 739 740 741 741 741 742 743 745 746 749 751 754 756 758 760 764 767 770
650 650 652 654 661 669 678 683 686 691 697 704 706 708 715 722 728 736 741 743 757 764 764 762 760 759 756 756 754 753 751 747 745 743 743 742 740 742 743 745 745 746 748 750 752 755 758 761 762 764 767 770 773 776
650 653 658 661 667 675 689 688 686 690 694 704 706 711 719 728 738 743 751 760 766 769 766 763 761 760 758 758 758 756 753 750 749 748 748 748 748 748 748 749 750 752 754 756 758 760 762 765 768 770 773 776 779 782
655 666 673 675 676 686 688 691 690 695 700 705 711 720 725 730 737 746 759 765 770 770 768 765 763 759 759 759 760 761 758 755 755 755 753 753 754 756 756 757 757 758 760 761 762 764 767 770 773 775 777 779 781 784
668 696 688 690 690 688 693 700 702 702 711 712 718 726 731 730 736 747 759 770 772 773 773 770 767 767 766 765 766 766 764 763 762 762 761 761 762 763 763 763 763 765 765 766 768 769 771 773 775 778 780 782 784 787
695 709 705 703 705 700 702 707 711 714 718 724 731 733 732 734 744 757 768 776 777 778 777 775 772 771 772 772 772 771 770 768 767 768 768 767 765 765 767 768 769 771 771 771 772 773 775 777 779 781 784 786 788 790
705 714 719 719 715 713 718 723 723 727 731 735 738 739 736 743 759 772 779 782 781 782 781 780 779 778 777 777 777 776 775 774 774 776 776 774 773 772 773 774 775 776 776 776 777 778 780 782 784 786 788 790 792 794
721 725 728 730 729 727 731 735 741 746 748 750 746 753 756 761 773 781 784 785 784 783 783 783 783 783 782 782 781 780 779 779 779 779 780 780 780 780 780 780 780 780 780 781 782 782 784 785 787 789 791 793 795 797
727 733 736 739 736 744 751 753 759 763 764 756 753 763 776 783 787 787 788 788 787 786 786 786 785 785 786 786 786 785 783 781 780 781 782 784 785 787 786 786 786 786 786 786 786 787 788 789 790 792 794 796 798 799
731 731 737 744 750 761 766 763 767 769 768 768 773 780 785 790 792 792 791 791 790 791 792 792 791 790 790 789 790 791 790 789 788 787 788 790 791 791 791 790 790 790 790 791 791 791 792 793 795 796 797 798 800 801
730 732 740 750 763 771 771 771 771 772 772 773 777 780 785 791 796 797 797 796 796 795 795 796 797 797 796 795 795 794 795 796 795 795 795 795 794 794 794 794 794 793 793 794 794 795 795 796 797 798 799 800 801 802
734 740 747 757 769 772 772 769 769 772 774 776 778 782 783 783 789 799 802 800 799 800 801 801 802 802 802 802 801 801 801 801 800 798 797 797 798 797 797 797 796 796 796 796 797 797 798 799 799 800 801 802 803 804
744 747 750 756 765 764 770 766 767 772 772 776 782 783 787 787 793 802 805 805 805 804 805 805 806 805 805 804 804 804 803 802 801 800 799 799 799 798 798 798 798 798 798 799 799 800 800 801 801 802 803 803 804 804